SCP
1 1 1 1 1 0 0 0 0 0 0 0 0 0 0 0 0 0 0 0 0 0 0 0 0 0 0 0 0 0 0 0 0 0 0 0 0 0 0 0 0 0 0 0 0 0 0 0 0
1 1 1 1 1 0 0 0 0 0 0 0 0 0 0 0 0 0 0 0 0 0 0 0 0 0 0 0 0 0 0 0 0 0 0 0 0 0 0 0 0 0 0 0 0 0 0 0 0
1 1 1 1 0 0 0 0 0 0 0 0 0 0 0 0 0 0 0 0 0 0 0 0 0 0 0 0 0 0 0 0 0 0 0 0 0 0 0 0 0 0 0 0 0 0 0 0 0
1 1 1 0 0 0 0 0 0 0 0 0 0 0 0 0 0 0 0 0 0 0 0 0 0 0 0 0 0 0 0 0 0 0 0 0 0 0 0 0 0 0 0 0 0 0 0 0 0
1 1 0 0 0 0 0 0 0 0 0 0 0 0 0 0 0 0 0 0 0 0 0 0 0 0 0 0 0 0 0 0 0 0 0 0 0 0 0 0 0 0 0 0 0 0 0 0 0
0 0 0 0 0 0 0 0 0 0 0 0 0 0 0 0 0 0 0 0 0 0 0 0 0 0 0 0 0 0 0 0 0 0 0 0 0 0 0 0 0 0 0 0 0 0 0 0 0
0 0 0 0 0 0 0 0 0 0 0 0 0 0 0 0 0 0 0 0 0 0 0 0 0 0 0 0 0 0 0 0 0 0 0 0 0 0 0 0 0 0 0 0 0 0 0 0 0
0 0 0 0 0 0 0 0 0 0 0 0 0 0 0 0 0 0 0 0 0 0 0 0 0 0 0 0 0 0 0 0 0 0 0 0 0 0 0 0 0 0 0 0 0 0 0 0 0
0 0 0 0 0 0 0 0 0 0 0 0 0 0 0 0 0 0 0 0 0 0 0 0 0 0 0 0 0 0 0 0 0 0 0 0 0 0 0 0 0 0 0 0 0 0 0 0 0
0 0 0 0 0 0 0 0 0 0 0 0 0 0 0 0 0 0 0 0 0 0 0 0 0 0 0 0 0 0 0 0 0 0 0 0 0 0 0 0 0 0 0 0 0 0 0 0 0
0 0 0 0 0 0 0 0 0 0 0 0 0 0 0 0 0 0 0 0 0 0 0 0 0 0 0 0 0 0 0 0 0 0 0 0 0 0 0 0 0 0 0 0 0 0 0 0 0
0 0 0 0 0 0 0 0 0 0 0 0 0 0 0 0 0 0 0 0 0 0 0 0 0 0 0 0 0 0 0 0 0 0 0 0 0 0 0 0 0 0 0 0 0 0 0 0 0
0 0 0 0 0 0 0 0 0 0 0 0 0 0 0 0 0 0 0 0 0 0 0 0 0 0 0 0 0 0 0 0 0 0 0 0 0 0 0 0 0 0 0 0 0 0 0 0 0
0 0 0 0 0 0 0 0 0 0 0 0 0 0 0 0 1 1 1 1 1 1 0 0 0 0 0 0 0 0 0 0 0 0 0 0 0 0 0 0 0 0 0 0 0 0 0 0 0
0 0 0 0 0 0 0 0 0 0 0 0 0 0 0 0 1 1 1 1 1 1 1 1 1 1 0 0 0 0 0 0 0 0 0 0 0 0 0 0 0 0 0 0 0 0 0 0 0
0 0 0 0 0 0 0 0 0 0 0 0 0 0 0 1 1 1 1 1 1 1 1 1 1 1 1 0 0 0 0 0 0 0 0 0 0 0 0 0 0 0 0 0 0 0 0 0 0
0 0 0 0 0 0 0 0 0 0 0 0 0 0 1 1 1 1 1 1 1 1 1 1 1 1 1 1 0 0 0 0 0 0 0 0 0 0 0 0 0 0 0 0 0 0 0 0 0
0 0 0 0 0 0 0 0 0 0 0 0 0 0 1 1 1 1 1 1 1 2 2 1 1 1 1 1 1 0 0 0 0 0 0 0 0 0 0 0 0 0 0 0 0 0 0 0 0
0 0 0 0 0 0 0 0 0 0 0 0 0 1 1 1 1 1 1 1 2 2 2 2 1 1 1 1 1 1 1 0 0 1 1 1 0 0 0 0 0 0 0 0 0 0 0 0 0
0 0 0 0 0 0 0 0 0 0 0 0 0 1 1 1 1 1 1 1 2 2 2 2 2 2 1 1 1 1 1 1 1 1 1 1 0 0 0 0 0 0 0 0 0 0 0 0 0
0 0 0 0 0 0 0 0 0 0 0 0 0 1 1 1 1 1 1 1 2 2 2 2 2 2 2 1 1 1 1 1 1 1 1 1 1 0 0 0 0 0 0 0 0 0 0 0 0
0 0 0 0 0 0 0 0 0 0 0 0 0 0 1 1 1 1 1 1 1 2 2 2 2 2 2 1 1 1 1 1 1 1 1 1 1 1 0 0 0 0 0 0 0 0 0 0 0
0 0 0 0 0 0 0 0 0 0 0 0 0 0 0 1 1 1 1 1 1 1 2 2 3 2 2 2 1 1 1 1 1 1 1 1 1 1 0 0 0 0 0 0 0 0 0 0 0
0 0 0 0 0 0 0 0 0 0 0 0 0 0 0 1 1 1 1 1 1 2 2 2 3 3 2 2 1 1 1 1 1 1 1 1 1 1 1 0 0 0 0 0 0 0 0 0 0
0 0 0 0 0 0 0 0 0 0 0 0 0 0 1 1 1 1 1 2 2 2 2 2 3 3 2 2 2 1 1 1 1 1 1 1 1 1 1 1 1 1 0 0 0 0 0 0 0
0 0 0 0 0 0 0 0 0 0 0 0 0 1 1 1 1 1 1 2 2 2 2 2 2 3 2 2 2 1 1 1 1 1 1 1 1 1 1 1 1 1 0 0 0 0 0 0 0
0 0 0 0 0 0 0 0 0 0 0 0 0 1 1 1 1 1 1 2 2 2 2 2 2 2 2 2 2 1 1 1 1 1 1 1 1 1 1 1 1 1 0 0 0 0 0 0 0
0 0 0 0 0 0 0 0 0 0 0 0 0 1 1 1 1 1 1 1 1 2 2 2 2 2 2 2 1 1 1 1 1 1 1 1 1 1 1 1 1 1 1 1 0 0 0 0 0
0 0 0 0 0 0 0 0 0 0 0 0 0 1 1 1 1 1 1 1 1 1 2 2 2 2 2 2 1 1 1 1 1 1 1 1 1 1 1 1 1 1 1 1 1 1 0 0 0
0 0 0 0 0 0 0 0 0 0 0 0 0 1 1 1 1 1 1 1 1 1 2 2 2 2 2 2 1 1 1 1 1 1 1 1 1 1 1 1 1 1 1 1 1 1 1 1 1
Wind_Speed
9 11 10 7 3 5 15 16 16 15 16 15 14 15 17 16 12 12 11 15 15 15 13 12 12 12 13 13 12 13 13 12 12 12 13 13 13 13 13 13 14 14 15 15 15 15 15 15 15
10 13 10 5 2 11 14 15 15 14 13 13 15 18 19 18 16 14 12 13 15 15 13 13 12 12 12 12 12 12 12 12 12 12 12 13 13 13 13 14 14 15 15 15 15 15 15 15 14
13 16 8 1 11 13 15 13 13 13 12 14 17 17 15 14 15 12 12 14 15 15 14 13 13 13 12 12 12 12 12 12 12 12 12 13 13 13 13 13 14 14 15 15 15 15 15 14 13
9 8 3 8 18 17 15 12 12 13 13 13 15 14 14 14 14 14 13 14 15 16 15 14 13 13 12 12 11 12 12 12 12 12 12 12 13 13 13 13 13 13 14 14 14 14 14 13 11
10 4 5 13 17 16 13 13 14 14 15 17 18 17 16 15 16 15 12 13 14 16 15 14 13 13 12 12 11 11 11 11 11 12 12 12 12 13 13 13 13 13 13 13 13 13 12 11 9
5 1 5 13 16 15 13 14 15 15 15 16 18 18 14 13 13 13 12 12 14 15 16 14 14 13 12 11 11 11 11 11 11 11 11 11 12 12 11 12 12 12 12 12 12 11 11 10 7
3 3 9 14 14 14 14 13 13 14 13 13 16 17 14 13 11 12 11 11 12 14 14 13 12 11 11 11 11 11 10 10 10 10 10 10 11 11 11 11 11 12 11 11 10 10 10 8 5
1 2 10 12 13 15 13 13 13 14 12 10 11 13 14 13 12 12 11 10 10 10 11 12 12 11 11 10 10 11 10 10 9 9 9 9 9 9 10 10 10 11 10 10 9 9 8 6 4
2 3 8 11 12 13 12 13 13 13 13 13 14 17 17 15 13 12 11 10 8 8 7 8 10 10 10 10 11 10 10 9 8 7 8 7 5 7 7 10 11 10 9 8 8 8 7 5 4
4 6 9 11 12 12 11 11 11 12 14 15 16 17 17 14 12 11 11 11 9 8 8 6 7 7 8 7 8 6 6 7 5 4 5 4 3 3 6 10 10 9 9 8 7 7 6 5 3
6 8 9 10 11 11 10 10 9 11 12 15 16 17 15 14 12 10 10 10 9 8 7 8 6 4 5 5 5 3 3 4 4 4 3 2 3 4 4 4 5 5 7 5 6 6 4 4 3
6 7 7 9 10 9 9 10 11 11 13 16 17 16 14 12 11 10 9 10 9 8 7 8 7 5 4 3 3 4 4 4 3 4 2 2 1 2 3 2 4 4 3 3 3 3 3 3 2
3 6 6 7 8 8 9 10 11 13 15 17 17 15 14 12 11 10 9 10 9 8 7 8 7 5 3 2 1 2 3 4 5 4 3 2 2 2 2 1 1 3 3 3 2 2 2 2 1
1 3 5 5 7 8 7 7 9 14 15 15 15 14 13 12 12 11 10 10 9 8 7 8 7 6 3 2 1 1 2 3 4 3 4 3 2 2 2 2 1 1 2 2 2 3 2 2 1
3 2 3 4 6 8 8 4 6 10 13 14 14 13 13 12 12 12 11 10 10 8 7 7 7 7 5 3 3 2 2 3 3 3 3 3 2 2 2 1 2 1 1 1 1 2 2 2 2
8 5 4 5 5 8 8 7 10 10 12 12 12 12 12 10 12 11 12 10 10 9 8 7 7 9 6 3 2 1 2 3 3 3 3 3 3 3 2 1 2 1 1 1 1 1 1 1 1
7 5 7 7 7 8 7 8 13 12 12 11 12 12 12 11 10 10 12 11 10 9 8 6 5 7 7 5 3 2 2 2 2 2 2 3 3 3 2 2 2 2 1 1 1 1 1 1 1
7 7 7 8 8 7 6 8 12 14 13 12 12 12 12 13 12 12 12 12 11 10 9 7 6 6 5 4 3 2 2 2 2 2 3 3 2 2 2 2 2 2 1 1 1 1 1 1 1
9 8 7 7 5 5 5 8 10 12 13 13 12 12 12 12 13 13 12 13 12 10 9 8 7 6 5 3 3 3 3 2 2 2 3 4 3 2 2 1 1 1 1 1 1 1 1 1 1
9 9 8 5 4 4 3 5 7 9 11 12 13 13 13 12 12 12 11 11 12 11 10 9 7 7 6 4 3 2 2 2 3 2 3 3 3 3 3 2 1 1 1 1 1 1 1 1 1
10 9 7 5 7 8 6 5 5 5 6 11 12 13 14 14 13 13 11 11 11 12 11 10 9 8 7 6 4 3 2 1 2 3 3 3 3 3 2 3 2 1 1 1 2 1 1 1 1
11 9 8 9 10 7 6 4 4 4 5 8 10 12 13 13 14 13 12 11 12 12 11 9 9 8 7 6 5 5 4 3 2 2 3 3 3 3 2 2 2 1 0 1 2 2 1 1 1
12 10 10 10 10 8 8 5 4 6 7 7 7 10 12 13 14 14 13 12 11 12 11 10 9 8 7 7 5 4 3 3 2 3 3 3 3 3 3 3 2 2 1 1 0 1 1 1 1
11 11 11 11 10 11 9 8 6 6 6 5 7 7 9 11 12 13 13 11 10 10 10 10 9 8 8 7 6 5 4 3 3 3 3 3 3 3 3 3 3 2 2 1 1 1 1 1 1
13 11 9 10 9 9 8 8 3 8 8 8 8 8 9 9 11 11 12 12 10 10 10 10 10 9 8 8 7 6 5 4 4 4 4 3 3 3 3 4 3 3 2 2 2 2 1 2 2
13 15 12 10 8 6 5 7 3 6 6 7 8 9 10 8 9 11 11 11 10 11 10 11 10 9 9 8 6 6 6 5 4 4 3 3 2 3 3 4 4 3 3 3 3 2 3 2 2
14 14 15 12 11 9 6 5 3 4 7 6 7 7 9 9 9 11 11 11 10 10 9 9 9 8 8 8 7 5 5 5 4 3 3 2 2 2 3 3 3 3 3 2 2 2 2 1 2
16 13 10 11 9 10 8 7 4 5 5 6 6 7 7 8 9 11 11 10 10 10 9 9 8 7 6 6 7 7 6 5 3 3 4 3 2 1 2 3 3 3 3 3 2 2 2 1 1
14 14 11 8 9 10 7 2 2 4 5 5 5 5 5 6 7 8 9 9 9 10 10 9 9 8 7 6 5 5 6 6 5 4 3 3 3 3 3 3 3 3 3 2 2 2 1 1 1
14 14 13 10 9 9 8 3 4 4 6 6 6 8 5 4 5 6 8 6 6 8 9 9 8 8 7 6 6 5 5 5 5 5 4 4 4 4 4 3 3 3 3 2 2 2 2 2 1
Wind_Direction
205 219 219 238 228 74 68 65 64 66 66 63 62 68 63 58 72 89 104 105 105 104 104 99 92 92 91 91 90 90 90 90 89 89 88 89 90 91 93 92 96 97 95 95 101 104 105 105 106
229 227 227 240 74 75 69 68 67 68 75 77 72 76 74 72 83 96 102 107 109 107 104 99 97 95 92 93 93 93 92 90 90 90 91 91 91 92 94 96 98 98 97 95 97 100 103 104 105
252 249 253 105 69 74 74 74 81 82 83 84 77 66 66 82 90 101 112 112 106 101 100 101 100 99 96 96 94 94 93 93 91 92 94 96 97 97 97 99 99 99 100 99 99 100 102 102 104
252 240 200 79 74 75 79 82 87 87 81 80 85 79 72 83 99 110 118 115 112 110 107 106 104 101 98 97 96 95 93 92 93 92 93 97 99 100 97 99 100 101 102 102 103 103 103 103 104
242 262 86 83 82 82 83 86 83 81 82 83 87 92 89 92 106 115 120 116 115 112 111 113 111 107 104 102 100 98 97 95 95 95 96 98 99 100 99 101 101 103 105 105 105 105 105 106 107
261 223 91 87 84 84 84 86 89 89 94 101 103 102 101 112 116 119 116 114 113 116 115 118 118 115 112 108 106 104 103 101 100 99 98 99 101 104 104 107 107 106 107 107 107 110 111 110 111
283 39 86 91 93 84 78 79 86 93 93 102 111 112 119 121 121 118 114 110 111 117 124 131 132 127 120 114 113 112 110 109 109 107 106 109 110 113 113 111 112 111 110 110 112 115 116 115 114
336 53 85 91 94 91 88 84 82 88 85 99 117 117 126 129 130 122 116 108 106 114 125 138 139 138 139 129 127 124 121 120 121 123 125 124 123 123 124 124 119 119 119 118 119 122 122 125 129
52 69 82 93 96 101 104 99 98 99 95 82 82 108 125 136 133 129 123 119 119 120 124 129 132 140 140 137 137 140 136 135 138 142 145 148 150 141 140 127 130 131 132 132 135 138 140 148 170
75 76 81 92 100 105 106 110 119 114 105 99 98 110 127 137 139 141 139 137 138 134 125 119 118 129 132 132 138 152 149 148 163 148 160 178 155 136 131 134 141 144 148 152 160 162 166 184 192
86 91 95 98 102 110 117 119 119 110 112 119 124 131 140 146 150 147 144 141 137 133 125 123 119 115 117 123 141 143 139 144 152 142 152 152 135 138 135 143 150 163 171 179 171 188 203 197 201
94 102 103 103 109 113 108 107 100 101 110 122 131 139 145 151 148 146 140 132 130 127 126 123 109 95 80 85 118 146 146 147 142 145 163 142 140 135 133 157 166 176 184 177 181 202 186 179 192
87 111 114 116 119 112 108 103 107 109 116 125 135 143 150 153 149 139 131 128 130 134 130 112 109 104 91 59 356 126 123 134 139 145 160 148 143 142 145 160 173 185 170 171 193 201 163 168 203
127 122 117 121 120 110 95 102 118 124 130 134 143 152 155 151 148 139 139 139 139 142 136 125 128 128 133 143 153 38 111 121 127 139 147 158 147 144 154 168 197 221 182 177 182 188 167 190 206
199 175 166 164 143 122 112 125 124 133 142 148 153 156 153 153 150 149 150 149 147 146 140 139 150 145 157 171 187 155 147 137 128 130 140 153 143 145 162 181 203 224 191 178 193 184 174 198 196
223 197 214 217 181 153 150 157 154 161 160 157 158 158 157 157 157 155 154 154 148 149 148 163 168 152 159 173 196 160 145 127 118 131 139 149 152 167 182 185 207 205 208 195 199 210 194 203 197
252 216 218 223 216 186 173 159 154 170 166 165 165 163 161 161 163 160 159 157 151 148 152 165 167 150 162 168 177 171 141 130 136 138 147 158 176 174 187 197 188 199 214 197 220 175 179 190 203
262 247 228 220 209 205 177 156 157 173 172 168 168 167 167 168 172 168 164 158 153 152 155 164 169 158 163 166 175 199 168 162 162 158 152 157 184 190 197 204 195 206 185 161 140 150 185 199 217
245 255 243 238 213 212 183 171 171 177 175 167 167 169 171 173 170 167 167 163 159 156 159 168 177 164 169 182 189 184 182 189 176 174 164 165 186 192 211 250 166 200 178 177 184 171 197 212 201
249 255 248 248 230 236 208 184 180 188 182 169 169 171 173 173 166 164 168 168 163 161 165 169 178 173 178 179 187 191 192 190 176 161 147 168 177 191 201 208 207 182 184 193 213 186 225 244 196
254 255 258 260 252 241 230 211 196 196 204 171 174 175 176 175 170 167 171 174 169 167 172 179 177 175 184 178 184 194 174 210 172 153 158 172 175 194 216 169 205 221 174 177 199 192 201 242 249
253 258 251 252 255 259 248 238 201 176 237 200 182 177 176 174 170 169 175 178 176 172 174 169 169 171 175 181 195 193 186 187 186 165 157 166 181 189 187 178 178 209 181 171 204 161 201 230 247
256 268 268 264 268 270 270 262 225 170 207 214 198 186 175 171 172 171 177 179 179 174 170 165 164 169 174 185 192 199 201 187 174 163 158 168 177 185 183 176 177 168 186 176 163 108 181 217 243
263 266 265 263 264 257 251 249 203 178 181 191 200 197 169 167 167 167 170 168 173 169 163 161 163 169 175 183 188 193 201 193 177 173 172 184 178 181 182 179 176 176 191 188 192 201 218 231 258
244 250 248 244 244 256 274 261 162 157 166 176 182 177 161 162 160 159 161 162 164 164 162 161 164 171 177 182 188 188 198 196 193 196 195 196 184 174 181 182 176 182 190 195 194 185 232 236 240
240 243 248 257 258 264 281 268 187 164 157 151 147 153 149 157 158 157 162 161 164 166 164 162 165 173 178 182 185 186 191 198 201 206 203 199 199 176 171 173 177 187 196 205 179 202 213 212 228
245 244 253 256 258 259 245 248 197 170 156 148 136 140 143 151 160 155 160 160 162 163 160 161 162 170 179 181 178 184 192 204 200 183 201 203 190 183 164 172 181 186 201 215 184 199 216 195 221
245 253 257 259 261 263 242 233 212 187 167 141 137 134 132 145 155 155 159 161 161 162 160 158 157 165 172 177 184 187 191 196 190 197 196 195 184 178 168 178 187 192 197 199 195 196 199 203 212
229 241 254 267 269 267 261 234 187 164 133 138 129 119 117 127 136 146 149 154 157 160 160 162 159 165 176 183 185 184 185 188 188 196 195 187 183 184 191 196 196 186 186 186 180 190 196 199 211
240 238 241 247 260 273 275 213 164 132 135 139 123 101 82 82 108 126 129 139 153 161 161 157 162 172 177 178 179 184 181 182 187 192 193 188 184 191 192 189 187 184 176 177 177 192 197 197 212